Tiempo cada hora Goes

Hoy, 30 Noviembre, Lunes

Tiempo Temperatura Precipitaciones Viento Presión Humedad
00:00 +1°C° 0 mm 2 mps 770 mmHg 78%
01:00 +1°C° 0 mm 2 mps 769 mmHg 77%
02:00 +1°C° 0 mm 2 mps 769 mmHg 76%
03:00 0°C° 0 mm 3 mps 769 mmHg 75%
04:00 0°C° 0 mm 3 mps 769 mmHg 75%
05:00 0°C° 0 mm 3 mps 769 mmHg 74%
06:00 0°C° 0 mm 3 mps 769 mmHg 74%
07:00 0°C° 0 mm 4 mps 768 mmHg 73%
08:00 0°C° 0 mm 5 mps 768 mmHg 73%
09:00 +1°C° 0 mm 5 mps 768 mmHg 73%
10:00 +2°C° 0 mm 6 mps 767 mmHg 77%
11:00 +3°C° 0 mm 6 mps 767 mmHg 81%
12:00 +4°C° 0 mm 6 mps 766 mmHg 85%
13:00 +4°C° 0.2 mm 7 mps 766 mmHg 87%
14:00 +5°C° 0.2 mm 7 mps 765 mmHg 89%
15:00 +5°C° 0.2 mm 8 mps 764 mmHg 91%
16:00 +6°C° 0.9 mm 8 mps 763 mmHg 92%
17:00 +6°C° 0.9 mm 9 mps 763 mmHg 92%
18:00 +7°C° 0.9 mm 9 mps 762 mmHg 92%
19:00 +7°C° 0.5 mm 9 mps 762 mmHg 90%
20:00 +7°C° 0.5 mm 9 mps 761 mmHg 88%
21:00 +7°C° 0.5 mm 9 mps 761 mmHg 87%
22:00 +7°C° 0.4 mm 9 mps 761 mmHg 83%
23:00 +7°C° 0.4 mm 9 mps 760 mmHg 80%

Mañana, 1 Diciembre, Martes

Tiempo Temperatura Precipitaciones Viento Presión Humedad
00:00 +6°C° 0.4 mm 9 mps 760 mmHg 77%
01:00 +6°C° 0.2 mm 9 mps 760 mmHg 76%
02:00 +6°C° 0.2 mm 8 mps 760 mmHg 75%
03:00 +6°C° 0.2 mm 8 mps 760 mmHg 73%
04:00 +6°C° 0.6 mm 9 mps 761 mmHg 75%
05:00 +6°C° 0.6 mm 10 mps 761 mmHg 77%
06:00 +7°C° 0.6 mm 10 mps 761 mmHg 79%
07:00 +7°C° 0.2 mm 11 mps 761 mmHg 78%
08:00 +7°C° 0.2 mm 11 mps 761 mmHg 77%
09:00 +7°C° 0.2 mm 12 mps 761 mmHg 76%
10:00 +8°C° 0.1 mm 11 mps 762 mmHg 75%
11:00 +8°C° 0.1 mm 11 mps 762 mmHg 75%
12:00 +8°C° 0.1 mm 11 mps 762 mmHg 74%
13:00 +8°C° 0.2 mm 10 mps 762 mmHg 75%
14:00 +8°C° 0.2 mm 10 mps 762 mmHg 77%
15:00 +8°C° 0.2 mm 10 mps 762 mmHg 78%
16:00 +8°C° 0.1 mm 9 mps 762 mmHg 78%
17:00 +8°C° 0.1 mm 9 mps 763 mmHg 78%
18:00 +7°C° 0.1 mm 8 mps 763 mmHg 79%
19:00 +7°C° 0.1 mm 8 mps 763 mmHg 82%
20:00 +8°C° 0.1 mm 7 mps 764 mmHg 84%
21:00 +7°C° 0.1 mm 6 mps 764 mmHg 87%
22:00 +7°C° 0 mm 6 mps 764 mmHg 87%
23:00 +6°C° 0 mm 5 mps 764 mmHg 86%

Pasado mañana, 2 Diciembre, Miércoles

Tiempo Temperatura Precipitaciones Viento Presión Humedad
00:00 +6°C° 0 mm 5 mps 764 mmHg 85%
01:00 +5°C° 0 mm 4 mps 764 mmHg 87%
02:00 +5°C° 0 mm 3 mps 764 mmHg 88%
03:00 +5°C° 0 mm 2 mps 764 mmHg 89%
04:00 +5°C° 0 mm 2 mps 764 mmHg 91%
05:00 +5°C° 0 mm 2 mps 764 mmHg 92%
06:00 +4°C° 0 mm 2 mps 764 mmHg 93%
07:00 +5°C° 0 mm 1 mps 764 mmHg 92%
08:00 +6°C° 0 mm 1 mps 763 mmHg 92%
09:00 +6°C° 0 mm 1 mps 763 mmHg 91%
10:00 +6°C° 0 mm 1 mps 763 mmHg 88%
11:00 +7°C° 0 mm 1 mps 762 mmHg 84%
12:00 +8°C° 0 mm 1 mps 762 mmHg 80%
13:00 +8°C° 0 mm 1 mps 762 mmHg 81%
14:00 +7°C° 0 mm 1 mps 761 mmHg 82%
15:00 +7°C° 0 mm 1 mps 761 mmHg 83%
16:00 +6°C° 0 mm 2 mps 760 mmHg 85%
17:00 +5°C° 0 mm 2 mps 760 mmHg 86%
18:00 +5°C° 0 mm 2 mps 760 mmHg 88%
19:00 +4°C° 0 mm 3 mps 759 mmHg 87%
20:00 +4°C° 0 mm 3 mps 759 mmHg 87%
21:00 +4°C° 0 mm 4 mps 759 mmHg 86%
22:00 +4°C° 0 mm 4 mps 758 mmHg 87%
23:00 +4°C° 0 mm 4 mps 758 mmHg 88%

3 Diciembre, Jueves

Tiempo Temperatura Precipitaciones Viento Presión Humedad
00:00 +4°C° 0 mm 4 mps 757 mmHg 90%
01:00 +4°C° 0 mm 4 mps 757 mmHg 90%
02:00 +4°C° 0 mm 4 mps 756 mmHg 90%
03:00 +4°C° 0 mm 4 mps 755 mmHg 90%
04:00 +3°C° 0.1 mm 5 mps 755 mmHg 90%
05:00 +3°C° 0.1 mm 5 mps 754 mmHg 89%
06:00 +5°C° 0.1 mm 5 mps 753 mmHg 89%
07:00 +5°C° 0.1 mm 5 mps 753 mmHg 89%
08:00 +5°C° 0.1 mm 5 mps 752 mmHg 89%
09:00 +5°C° 0.1 mm 5 mps 752 mmHg 89%
10:00 +5°C° 0.1 mm 5 mps 751 mmHg 87%
11:00 +5°C° 0.1 mm 5 mps 750 mmHg 86%
12:00 +5°C° 0.1 mm 4 mps 750 mmHg 85%
13:00 +5°C° 0.1 mm 5 mps 749 mmHg 85%
14:00 +5°C° 0.1 mm 5 mps 748 mmHg 85%
15:00 +5°C° 0.1 mm 5 mps 747 mmHg 84%
16:00 +5°C° 0 mm 5 mps 746 mmHg 85%
17:00 +4°C° 0 mm 6 mps 746 mmHg 86%
18:00 +4°C° 0 mm 6 mps 745 mmHg 86%
19:00 +4°C° 0.2 mm 6 mps 744 mmHg 87%
20:00 +4°C° 0.2 mm 7 mps 743 mmHg 88%
21:00 +3°C° 0.2 mm 7 mps 743 mmHg 89%
22:00 +4°C° 0.4 mm 7 mps 742 mmHg 88%
23:00 +4°C° 0.4 mm 7 mps 741 mmHg 88%

4 Diciembre, Viernes

Tiempo Temperatura Precipitaciones Viento Presión Humedad
00:00 +4°C° 0.4 mm 7 mps 740 mmHg 87%
01:00 +4°C° 0.1 mm 7 mps 739 mmHg 86%
02:00 +4°C° 0.1 mm 8 mps 739 mmHg 85%
03:00 +4°C° 0.1 mm 8 mps 738 mmHg 84%
04:00 +4°C° 0.1 mm 8 mps 737 mmHg 85%
05:00 +4°C° 0.1 mm 8 mps 737 mmHg 85%
06:00 +4°C° 0.1 mm 8 mps 737 mmHg 86%
07:00 +4°C° 0.2 mm 8 mps 736 mmHg 85%
08:00 +4°C° 0.2 mm 8 mps 736 mmHg 84%
09:00 +4°C° 0.2 mm 8 mps 736 mmHg 83%
10:00 +4°C° 0.2 mm 8 mps 736 mmHg 83%
11:00 +5°C° 0.2 mm 8 mps 735 mmHg 83%
12:00 +5°C° 0.2 mm 7 mps 735 mmHg 82%
13:00 +5°C° 0.1 mm 7 mps 735 mmHg 82%
14:00 +5°C° 0.1 mm 7 mps 734 mmHg 82%
15:00 +5°C° 0.1 mm 7 mps 734 mmHg 82%
16:00 +5°C° 0.1 mm 7 mps 734 mmHg 81%
17:00 +4°C° 0.1 mm 8 mps 734 mmHg 80%
18:00 +4°C° 0.1 mm 8 mps 734 mmHg 80%
19:00 +4°C° 0.2 mm 8 mps 734 mmHg 81%
20:00 +3°C° 0.2 mm 7 mps 734 mmHg 82%
21:00 +3°C° 0.2 mm 7 mps 734 mmHg 84%
22:00 +3°C° 0.2 mm 7 mps 734 mmHg 84%
23:00 +3°C° 0.2 mm 7 mps 734 mmHg 85%

5 Diciembre, Sábado

Tiempo Temperatura Precipitaciones Viento Presión Humedad
00:00 +3°C° 0.2 mm 7 mps 735 mmHg 86%
01:00 +2°C° 0.2 mm 8 mps 735 mmHg 84%
02:00 +2°C° 0.2 mm 8 mps 735 mmHg 83%
03:00 +2°C° 0.2 mm 9 mps 736 mmHg 82%
04:00 +1°C° 0 mm 9 mps 736 mmHg 82%
05:00 +1°C° 0 mm 8 mps 736 mmHg 81%
06:00 +1°C° 0 mm 8 mps 737 mmHg 80%
07:00 +1°C° 0 mm 8 mps 737 mmHg 80%
08:00 +1°C° 0 mm 8 mps 738 mmHg 79%
09:00 +1°C° 0 mm 8 mps 739 mmHg 78%
10:00 +1°C° 0 mm 8 mps 739 mmHg 77%
11:00 +1°C° 0 mm 8 mps 739 mmHg 76%
12:00 +2°C° 0 mm 7 mps 739 mmHg 75%
13:00 +2°C° 0.1 mm 7 mps 739 mmHg 79%
14:00 +2°C° 0.1 mm 7 mps 740 mmHg 82%
15:00 +2°C° 0.1 mm 7 mps 740 mmHg 85%
16:00 +2°C° 0.2 mm 7 mps 740 mmHg 86%
17:00 +2°C° 0.2 mm 6 mps 740 mmHg 87%
18:00 +2°C° 0.2 mm 6 mps 740 mmHg 88%
19:00 +2°C° 0.1 mm 6 mps 741 mmHg 89%
20:00 +2°C° 0.1 mm 5 mps 741 mmHg 90%
21:00 +2°C° 0.1 mm 5 mps 741 mmHg 91%
22:00 +2°C° 0.1 mm 5 mps 741 mmHg 91%
23:00 +3°C° 0.1 mm 4 mps 741 mmHg 91%
Mostrar más

Necesitamos Su Consentimiento

Meteoprog y nuestros Proveedores de Servicios pueden almacenar y acceder a sus datos personales como cookies, identificadores de dispositivo u otras tecnologías similares de su dispositivo y procesar dichos datos para personalizar contenido y anuncios, además de ofrecer funciones de redes sociales y analizar el tráfico.

  • Almacenar y/o acceder a información en su dispositivo

    Se puede almacenar o acceder a cookies, identificadores de dispositivo u otra información de su dispositivo para los fines anteriormente indicados.

  • Anuncios y contenido personalizados, medición de anuncios y contenido, percepciones del público, y desarrollo de productos

    Los anuncios y el contenido pueden personalizarse en base a su perfil. Se pueden añadir más datos para personalizar mejor los anuncios y contenidos. Se puede medir el rendimiento de los anuncios y contenidos. Se puede obtener la percepción sobre el público que ha visto los anuncios y contenidos. Dichos datos pueden usarse para desarrollar o mejorar la experiencia del usuario, sistemas y software.

Al hacer clic en ‘Estoy De Acuerdo’ usted permitirá el uso de las cookies, identificadores de dispositivo, balizas web u otras tecnologías similares indicadas. Su configuración puede cambiarse desde el navegador de su dispositivo.

Para ciertos fines, los intereses legítimos pueden ser considerados por encima del consentimiento. Puede leer más sobre ello en nuestra Política de Privacidad y Cookies.